This is the latest recevied weather packets stored in our database for station/object SV2ASS-2. If no packets are shown the sender has not sent any weather packets the latest 10 day(s).
| Time | Temp. | Humidity | Pressure | Rain* | Wind** | Luminosity | Snow |
|---|---|---|---|---|---|---|---|
| 1777157154 | 13.33° C | 47% | 1017.9 hPa | - | - | - | - |
| 1777156254 | 13.33° C | 49% | 1017.8 hPa | - | - | - | - |
| 1777155357 | 13.33° C | 48% | 1018 hPa | - | - | - | - |
| 1777154457 | 13.33° C | 48% | 1017.9 hPa | - | - | - | - |
| 1777153557 | 13.33° C | 50% | 1017.9 hPa | - | - | - | - |
| 1777152657 | 13.89° C | 51% | 1017.8 hPa | - | - | - | - |
| 1777151757 | 13.89° C | 52% | 1017.8 hPa | - | - | - | - |
| 1777150856 | 14.44° C | 51% | 1017.6 hPa | - | - | - | - |
| 1777149956 | 13.89° C | 53% | 1017.5 hPa | - | - | - | - |
| 1777149056 | 14.44° C | 54% | 1017.5 hPa | - | - | - | - |
| 1777148156 | 14.44° C | 52% | 1017.6 hPa | - | - | - | - |
| 1777147256 | 15° C | 53% | 1017.6 hPa | - | - | - | - |
| 1777146356 | 15° C | 51% | 1017.7 hPa | - | - | - | - |
| 1777145456 | 15.56° C | 50% | 1017.8 hPa | - | - | - | - |
| 1777144556 | 16.11° C | 48% | 1017.7 hPa | - | - | - | - |
| 1777143656 | 16.11° C | 47% | 1017.7 hPa | - | - | - | - |
| 1777142756 | 16.67° C | 48% | 1017.7 hPa | - | - | - | - |
| 1777141856 | 17.22° C | 46% | 1017.7 hPa | - | - | - | - |
| 1777140956 | 17.22° C | 47% | 1017.6 hPa | - | - | - | - |
| 1777140056 | 17.78° C | 45% | 1017.3 hPa | - | - | - | - |
| 1777139155 | 17.78° C | 45% | 1017 hPa | - | - | - | - |
| 1777138255 | 18.33° C | 46% | 1017 hPa | - | - | - | - |
| 1777137355 | 18.89° C | 46% | 1016.9 hPa | - | - | - | - |
| 1777136455 | 20° C | 44% | 1016.7 hPa | - | - | - | - |
| 1777135555 | 20.56° C | 40% | 1016.6 hPa | - | - | - | - |
* Rain since midnight (hover to see other rain measurements)
** Current wind speed in m/s (hover to see current wind gust speed)